Year,Month,Day,Hour,Minute,Value (Times are PST for temperature in C)
2015,04,26,00,00,7.30
2015,04,26,00,01,7.20
2015,04,26,00,02,7.20
2015,04,26,00,03,7.20
2015,04,26,00,04,7.10
2015,04,26,00,05,7.10
2015,04,26,00,06,7.10
2015,04,26,00,07,7.00
2015,04,26,00,08,7.00
2015,04,26,00,09,7.00
2015,04,26,00,10,6.90
2015,04,26,00,11,6.90
2015,04,26,00,12,6.90
2015,04,26,00,13,6.80
2015,04,26,00,14,6.80
2015,04,26,00,15,6.80
2015,04,26,00,16,6.70
2015,04,26,00,17,6.70
2015,04,26,00,18,6.70
2015,04,26,00,19,6.70
2015,04,26,00,20,6.60
2015,04,26,00,21,6.60
2015,04,26,00,22,6.60
2015,04,26,00,23,6.50
2015,04,26,00,24,6.50
2015,04,26,00,25,6.50
2015,04,26,00,26,6.40
2015,04,26,00,27,6.40
2015,04,26,00,28,6.40
2015,04,26,00,29,6.40
2015,04,26,00,30,6.30
2015,04,26,00,31,6.30
2015,04,26,00,32,6.30
2015,04,26,00,33,6.30
2015,04,26,00,34,6.30
2015,04,26,00,35,6.20
2015,04,26,00,36,6.20
2015,04,26,00,37,6.20
2015,04,26,00,38,6.20
2015,04,26,00,39,6.20
2015,04,26,00,40,6.10
2015,04,26,00,41,6.10
2015,04,26,00,42,6.10
2015,04,26,00,43,6.10
2015,04,26,00,44,6.00
2015,04,26,00,45,6.00
2015,04,26,00,46,6.00
2015,04,26,00,47,5.90
2015,04,26,00,48,5.90
2015,04,26,00,49,5.90
2015,04,26,00,50,5.90
2015,04,26,00,51,5.90
2015,04,26,00,52,5.90
2015,04,26,00,53,5.90
2015,04,26,00,54,5.90
2015,04,26,00,55,5.80
2015,04,26,00,56,5.80
2015,04,26,00,57,5.80
2015,04,26,00,58,5.80
2015,04,26,00,59,5.80
2015,04,26,01,00,5.80
2015,04,26,01,01,5.80
2015,04,26,01,02,5.80
2015,04,26,01,03,5.80
2015,04,26,01,04,5.80
2015,04,26,01,05,5.80
2015,04,26,01,06,5.80
2015,04,26,01,07,5.80
2015,04,26,01,08,5.80
2015,04,26,01,09,5.80
2015,04,26,01,10,5.70
2015,04,26,01,11,5.70
2015,04,26,01,12,5.70
2015,04,26,01,13,5.70
2015,04,26,01,14,5.80
2015,04,26,01,15,5.80
2015,04,26,01,16,5.80
2015,04,26,01,17,5.80
2015,04,26,01,18,5.80
2015,04,26,01,19,5.80
2015,04,26,01,20,5.80
2015,04,26,01,21,5.80
2015,04,26,01,22,5.80
2015,04,26,01,23,5.80
2015,04,26,01,24,5.80
2015,04,26,01,25,5.80
2015,04,26,01,26,5.90
2015,04,26,01,27,5.90
2015,04,26,01,28,6.00
2015,04,26,01,29,6.10
2015,04,26,01,30,6.10
2015,04,26,01,31,6.20
2015,04,26,01,32,6.30
2015,04,26,01,33,6.30
2015,04,26,01,34,6.40
2015,04,26,01,35,6.50
2015,04,26,01,36,6.60
2015,04,26,01,37,6.70
2015,04,26,01,38,6.80
2015,04,26,01,39,6.80
2015,04,26,01,40,6.90
2015,04,26,01,41,7.00
2015,04,26,01,42,7.00
2015,04,26,01,43,7.10
2015,04,26,01,44,7.10
2015,04,26,01,45,7.10
2015,04,26,01,46,7.10
2015,04,26,01,47,7.10
2015,04,26,01,48,7.10
2015,04,26,01,49,7.10
2015,04,26,01,50,7.10
2015,04,26,01,51,7.10
2015,04,26,01,52,7.00
2015,04,26,01,53,7.00
2015,04,26,01,54,6.90
2015,04,26,01,55,6.80
2015,04,26,01,56,6.70
2015,04,26,01,57,6.60
2015,04,26,01,58,6.40
2015,04,26,01,59,6.30
2015,04,26,02,00,6.20
2015,04,26,02,01,6.20
2015,04,26,02,02,6.10
2015,04,26,02,03,6.10
2015,04,26,02,04,6.00
2015,04,26,02,05,6.00
2015,04,26,02,06,5.90
2015,04,26,02,07,5.90
2015,04,26,02,08,5.80
2015,04,26,02,09,5.80
2015,04,26,02,10,5.80
2015,04,26,02,11,5.80
2015,04,26,02,12,5.80
2015,04,26,02,13,5.80
2015,04,26,02,14,5.70
2015,04,26,02,15,5.70
2015,04,26,02,16,5.70
2015,04,26,02,17,5.70
2015,04,26,02,18,5.70
2015,04,26,02,19,5.70
2015,04,26,02,20,5.60
2015,04,26,02,21,5.60
2015,04,26,02,22,5.60
2015,04,26,02,23,5.70
2015,04,26,02,24,5.70
2015,04,26,02,25,5.70
2015,04,26,02,26,5.60
2015,04,26,02,27,5.60
2015,04,26,02,28,5.60
2015,04,26,02,29,5.60
2015,04,26,02,30,5.60
2015,04,26,02,31,5.60
2015,04,26,02,32,5.60
2015,04,26,02,33,5.50
2015,04,26,02,34,5.50
2015,04,26,02,35,5.50
2015,04,26,02,36,5.50
2015,04,26,02,37,5.50
2015,04,26,02,38,5.50
2015,04,26,02,39,5.40
2015,04,26,02,40,5.40
2015,04,26,02,41,5.40
2015,04,26,02,42,5.40
2015,04,26,02,43,5.40
2015,04,26,02,44,5.40
2015,04,26,02,45,5.40
2015,04,26,02,46,5.40
2015,04,26,02,47,5.40
2015,04,26,02,48,5.40
2015,04,26,02,49,5.40
2015,04,26,02,50,5.40
2015,04,26,02,51,5.40
2015,04,26,02,52,5.40
2015,04,26,02,53,5.40
2015,04,26,02,54,5.40
2015,04,26,02,55,5.40
2015,04,26,02,56,5.40
2015,04,26,02,57,5.40
2015,04,26,02,58,5.40
2015,04,26,02,59,5.30
2015,04,26,03,00,5.30
2015,04,26,03,01,5.30
2015,04,26,03,02,5.30
2015,04,26,03,03,5.30
2015,04,26,03,04,5.30
2015,04,26,03,05,5.30
2015,04,26,03,06,5.30
2015,04,26,03,07,5.30
2015,04,26,03,08,5.30
2015,04,26,03,09,5.30
2015,04,26,03,10,5.20
2015,04,26,03,11,5.20
2015,04,26,03,12,5.20
2015,04,26,03,13,5.20
2015,04,26,03,14,5.20
2015,04,26,03,15,5.20
2015,04,26,03,16,5.20
2015,04,26,03,17,5.20
2015,04,26,03,18,5.20
2015,04,26,03,19,5.20
2015,04,26,03,20,5.20
2015,04,26,03,21,5.20
2015,04,26,03,22,5.20
2015,04,26,03,23,5.20
2015,04,26,03,24,5.10
2015,04,26,03,25,5.10
2015,04,26,03,26,5.10
2015,04,26,03,27,5.10
2015,04,26,03,28,5.00
2015,04,26,03,29,5.00
2015,04,26,03,30,5.00
2015,04,26,03,31,5.00
2015,04,26,03,32,5.00
2015,04,26,03,33,4.90
2015,04,26,03,34,4.90
2015,04,26,03,35,4.90
2015,04,26,03,36,4.90
2015,04,26,03,37,4.90
2015,04,26,03,38,4.90
2015,04,26,03,39,4.90
2015,04,26,03,40,4.90
2015,04,26,03,41,4.90
2015,04,26,03,42,4.80
2015,04,26,03,43,4.80
2015,04,26,03,44,4.80
2015,04,26,03,45,4.80
2015,04,26,03,46,4.80
2015,04,26,03,47,4.80
2015,04,26,03,48,4.80
2015,04,26,03,49,4.80
2015,04,26,03,50,4.80
2015,04,26,03,51,4.80
2015,04,26,03,52,4.80
2015,04,26,03,53,4.80
2015,04,26,03,54,4.80
2015,04,26,03,55,4.80
2015,04,26,03,56,4.80
2015,04,26,03,57,4.80
2015,04,26,03,58,4.80
2015,04,26,03,59,4.80
2015,04,26,04,00,4.80
2015,04,26,04,01,4.90
2015,04,26,04,02,4.90
2015,04,26,04,03,4.90
2015,04,26,04,04,4.90
2015,04,26,04,05,4.90
2015,04,26,04,06,4.90
2015,04,26,04,07,4.90
2015,04,26,04,08,4.90
2015,04,26,04,09,4.90
2015,04,26,04,10,4.90
2015,04,26,04,11,4.90
2015,04,26,04,12,4.90
2015,04,26,04,13,4.90
2015,04,26,04,14,4.90
2015,04,26,04,15,4.90
2015,04,26,04,16,4.90
2015,04,26,04,17,4.90
2015,04,26,04,18,4.90
2015,04,26,04,19,4.90
2015,04,26,04,20,4.90
2015,04,26,04,21,4.90
2015,04,26,04,22,4.90
2015,04,26,04,23,4.90
2015,04,26,04,24,4.90
2015,04,26,04,25,4.90
2015,04,26,04,26,4.80
2015,04,26,04,27,4.80
2015,04,26,04,28,4.80
2015,04,26,04,29,4.80
2015,04,26,04,30,4.80
2015,04,26,04,31,4.80
2015,04,26,04,32,4.90
2015,04,26,04,33,4.90
2015,04,26,04,34,4.90
2015,04,26,04,35,4.80
2015,04,26,04,36,4.80
2015,04,26,04,37,4.80
2015,04,26,04,38,4.80
2015,04,26,04,39,4.80
2015,04,26,04,40,4.80
2015,04,26,04,41,4.80
2015,04,26,04,42,4.80
2015,04,26,04,43,4.80
2015,04,26,04,44,4.80
2015,04,26,04,45,4.80
2015,04,26,04,46,4.80
2015,04,26,04,47,4.80
2015,04,26,04,48,4.80
2015,04,26,04,49,4.80
2015,04,26,04,50,4.80
2015,04,26,04,51,4.80
2015,04,26,04,52,4.80
2015,04,26,04,53,4.80
2015,04,26,04,54,4.80
2015,04,26,04,55,4.80
2015,04,26,04,56,4.80
2015,04,26,04,57,4.80
2015,04,26,04,58,4.80
2015,04,26,04,59,4.80
2015,04,26,05,00,4.80
2015,04,26,05,01,4.80
2015,04,26,05,02,4.80
2015,04,26,05,03,4.80
2015,04,26,05,04,4.80
2015,04,26,05,05,4.80
2015,04,26,05,06,4.80
2015,04,26,05,07,4.80
2015,04,26,05,08,4.80
2015,04,26,05,09,4.80
2015,04,26,05,10,4.80
2015,04,26,05,11,4.80
2015,04,26,05,12,4.80
2015,04,26,05,13,4.90
2015,04,26,05,14,4.90
2015,04,26,05,15,4.90
2015,04,26,05,16,4.90
2015,04,26,05,17,5.00
2015,04,26,05,18,5.00
2015,04,26,05,19,5.00
2015,04,26,05,20,5.00
2015,04,26,05,21,5.00
2015,04,26,05,22,4.90
2015,04,26,05,23,4.90
2015,04,26,05,24,4.90
2015,04,26,05,25,4.90
2015,04,26,05,26,4.90
2015,04,26,05,27,4.90
2015,04,26,05,28,4.90
2015,04,26,05,29,4.90
2015,04,26,05,30,4.90
2015,04,26,05,31,4.90
2015,04,26,05,32,4.90
2015,04,26,05,33,4.90
2015,04,26,05,34,4.90
2015,04,26,05,35,4.90
2015,04,26,05,36,4.80
2015,04,26,05,37,4.80
2015,04,26,05,38,4.90
2015,04,26,05,39,4.90
2015,04,26,05,40,4.90
2015,04,26,05,41,4.90
2015,04,26,05,42,4.90
2015,04,26,05,43,4.90
2015,04,26,05,44,4.90
2015,04,26,05,45,4.90
2015,04,26,05,46,4.90
2015,04,26,05,47,4.90
2015,04,26,05,48,5.00
2015,04,26,05,49,5.00
2015,04,26,05,50,5.00
2015,04,26,05,51,5.00
2015,04,26,05,52,5.00
2015,04,26,05,53,5.10
2015,04,26,05,54,5.10
2015,04,26,05,55,5.10
2015,04,26,05,56,5.20
2015,04,26,05,57,5.20
2015,04,26,05,58,5.20
2015,04,26,05,59,5.30
2015,04,26,06,00,5.30
2015,04,26,06,01,5.30
2015,04,26,06,02,5.40
2015,04,26,06,03,5.40
2015,04,26,06,04,5.50
2015,04,26,06,05,5.50
2015,04,26,06,06,5.50
2015,04,26,06,07,5.50
2015,04,26,06,08,5.50
2015,04,26,06,09,5.60
2015,04,26,06,10,5.60
2015,04,26,06,11,5.60
2015,04,26,06,12,5.60
2015,04,26,06,13,5.60
2015,04,26,06,14,5.60
2015,04,26,06,15,5.60
2015,04,26,06,16,5.60
2015,04,26,06,17,5.60
2015,04,26,06,18,5.70
2015,04,26,06,19,5.70
2015,04,26,06,20,5.70
2015,04,26,06,21,5.70
2015,04,26,06,22,5.80
2015,04,26,06,23,5.80
2015,04,26,06,24,5.80
2015,04,26,06,25,5.80
2015,04,26,06,26,5.90
2015,04,26,06,27,5.90
2015,04,26,06,28,6.00
2015,04,26,06,29,6.10
2015,04,26,06,30,6.10
2015,04,26,06,31,6.10
2015,04,26,06,32,6.10
2015,04,26,06,33,6.20
2015,04,26,06,34,6.20
2015,04,26,06,35,6.30
2015,04,26,06,36,6.30
2015,04,26,06,37,6.40
2015,04,26,06,38,6.50
2015,04,26,06,39,6.60
2015,04,26,06,40,6.70
2015,04,26,06,41,6.80
2015,04,26,06,42,6.90
2015,04,26,06,43,6.90
2015,04,26,06,44,7.00
2015,04,26,06,45,7.10
2015,04,26,06,46,7.20
2015,04,26,06,47,7.20
2015,04,26,06,48,7.20
2015,04,26,06,49,7.30
2015,04,26,06,50,7.30
2015,04,26,06,51,7.30
2015,04,26,06,52,7.40
2015,04,26,06,53,7.40
2015,04,26,06,54,7.50
2015,04,26,06,55,7.50
2015,04,26,06,56,7.60
2015,04,26,06,57,7.60
2015,04,26,06,58,7.60
2015,04,26,06,59,7.70
2015,04,26,07,00,7.70
2015,04,26,07,01,7.70
2015,04,26,07,02,7.70
2015,04,26,07,03,7.70
2015,04,26,07,04,7.80
2015,04,26,07,05,7.80
2015,04,26,07,06,7.80
2015,04,26,07,07,7.80
2015,04,26,07,08,7.80
2015,04,26,07,09,7.80
2015,04,26,07,10,7.80
2015,04,26,07,11,7.80
2015,04,26,07,12,7.90
2015,04,26,07,13,7.90
2015,04,26,07,14,7.90
2015,04,26,07,15,7.90
2015,04,26,07,16,7.90
2015,04,26,07,17,7.90
2015,04,26,07,18,7.90
2015,04,26,07,19,7.90
2015,04,26,07,20,8.00
2015,04,26,07,21,8.00
2015,04,26,07,22,8.00
2015,04,26,07,23,8.00
2015,04,26,07,24,8.00
2015,04,26,07,25,8.00
2015,04,26,07,26,8.10
2015,04,26,07,27,8.10
2015,04,26,07,28,8.10
2015,04,26,07,29,8.10
2015,04,26,07,30,8.10
2015,04,26,07,31,8.10
2015,04,26,07,32,8.10
2015,04,26,07,33,8.10
2015,04,26,07,34,8.20
2015,04,26,07,35,8.20
2015,04,26,07,36,8.20
2015,04,26,07,37,8.20
2015,04,26,07,38,8.20
2015,04,26,07,39,8.20
2015,04,26,07,40,8.20
2015,04,26,07,41,8.20
2015,04,26,07,42,8.20
2015,04,26,07,43,8.20
2015,04,26,07,44,8.20
2015,04,26,07,45,8.20
2015,04,26,07,46,8.20
2015,04,26,07,47,8.20
2015,04,26,07,48,8.20
2015,04,26,07,49,8.20
2015,04,26,07,50,8.20
2015,04,26,07,51,8.20
2015,04,26,07,52,8.20
2015,04,26,07,53,8.30
2015,04,26,07,54,8.30
2015,04,26,07,55,8.30
2015,04,26,07,56,8.30
2015,04,26,07,57,8.30
2015,04,26,07,58,8.30
2015,04,26,07,59,8.30
2015,04,26,08,00,8.30
2015,04,26,08,01,8.30
2015,04,26,08,02,8.30
2015,04,26,08,03,8.30
2015,04,26,08,04,8.30
2015,04,26,08,05,8.30
2015,04,26,08,06,8.30
2015,04,26,08,07,8.30
2015,04,26,08,08,8.40
2015,04,26,08,09,8.40
2015,04,26,08,10,8.40
2015,04,26,08,11,8.40
2015,04,26,08,12,8.40
2015,04,26,08,13,8.40
2015,04,26,08,14,8.40
2015,04,26,08,15,8.40
2015,04,26,08,16,8.50
2015,04,26,08,17,8.50
2015,04,26,08,18,8.50
2015,04,26,08,19,8.50
2015,04,26,08,20,8.50
2015,04,26,08,21,8.50
2015,04,26,08,22,8.50
2015,04,26,08,23,8.50
2015,04,26,08,24,8.60
2015,04,26,08,25,8.60
2015,04,26,08,26,8.60
2015,04,26,08,27,8.60
2015,04,26,08,28,8.60
2015,04,26,08,29,8.60
2015,04,26,08,30,8.60
2015,04,26,08,31,8.60
2015,04,26,08,32,8.60
2015,04,26,08,33,8.60
2015,04,26,08,34,8.70
2015,04,26,08,35,8.70
2015,04,26,08,36,8.70
2015,04,26,08,37,8.70
2015,04,26,08,38,8.70
2015,04,26,08,39,8.70
2015,04,26,08,40,8.70
2015,04,26,08,41,8.70
2015,04,26,08,42,8.70
2015,04,26,08,43,8.70
2015,04,26,08,44,8.70
2015,04,26,08,45,8.70
2015,04,26,08,46,8.70
2015,04,26,08,47,8.70
2015,04,26,08,48,8.70
2015,04,26,08,49,8.80
2015,04,26,08,50,8.80
2015,04,26,08,51,8.80
2015,04,26,08,52,8.80
2015,04,26,08,53,8.90
2015,04,26,08,54,8.90
2015,04,26,08,55,8.90
2015,04,26,08,56,8.90
2015,04,26,08,57,8.90
2015,04,26,08,58,8.90
2015,04,26,08,59,8.90
2015,04,26,09,00,8.90
2015,04,26,09,01,8.90
2015,04,26,09,02,8.90
2015,04,26,09,03,8.90
2015,04,26,09,04,8.90
2015,04,26,09,05,8.90
2015,04,26,09,06,8.90
2015,04,26,09,07,8.90
2015,04,26,09,08,8.90
2015,04,26,09,09,8.90
2015,04,26,09,10,8.90
2015,04,26,09,11,8.90
2015,04,26,09,12,8.90
2015,04,26,09,13,8.90
2015,04,26,09,14,8.90
2015,04,26,09,15,8.90
2015,04,26,09,16,9.00
2015,04,26,09,17,9.00
2015,04,26,09,18,9.00
2015,04,26,09,19,9.00
2015,04,26,09,20,9.00
2015,04,26,09,21,9.10
2015,04,26,09,22,9.10
2015,04,26,09,23,9.10
2015,04,26,09,24,9.10
2015,04,26,09,25,9.10
2015,04,26,09,26,9.10
2015,04,26,09,27,9.10
2015,04,26,09,28,9.10
2015,04,26,09,29,9.10
2015,04,26,09,30,9.10
2015,04,26,09,31,9.10
2015,04,26,09,32,9.10
2015,04,26,09,33,9.10
2015,04,26,09,34,9.10
2015,04,26,09,35,9.10
2015,04,26,09,36,9.10
2015,04,26,09,37,9.10
2015,04,26,09,38,9.10
2015,04,26,09,39,9.20
2015,04,26,09,40,9.20
2015,04,26,09,41,9.20
2015,04,26,09,42,9.20
2015,04,26,09,43,9.30
2015,04,26,09,44,9.30
2015,04,26,09,45,9.30
2015,04,26,09,46,9.30
2015,04,26,09,47,9.30
2015,04,26,09,48,9.30
2015,04,26,09,49,9.40
2015,04,26,09,50,9.40
2015,04,26,09,51,9.40
2015,04,26,09,52,9.50
2015,04,26,09,53,9.50
2015,04,26,09,54,9.50
2015,04,26,09,55,9.60
2015,04,26,09,56,9.60
2015,04,26,09,57,9.60
2015,04,26,09,58,9.60
2015,04,26,09,59,9.60
2015,04,26,10,00,9.60
2015,04,26,10,01,9.60
2015,04,26,10,02,9.70
2015,04,26,10,03,9.70
2015,04,26,10,04,9.70
2015,04,26,10,05,9.70
2015,04,26,10,06,9.70
2015,04,26,10,07,9.70
2015,04,26,10,08,9.70
2015,04,26,10,09,9.70
2015,04,26,10,10,9.80
2015,04,26,10,11,9.80
2015,04,26,10,12,9.80
2015,04,26,10,13,9.80
2015,04,26,10,14,9.90
2015,04,26,10,15,9.90
2015,04,26,10,16,10.00
2015,04,26,10,17,10.00
2015,04,26,10,18,10.10
2015,04,26,10,19,10.10
2015,04,26,10,20,10.10
2015,04,26,10,21,10.20
2015,04,26,10,22,10.20
2015,04,26,10,23,10.30
2015,04,26,10,24,10.30
2015,04,26,10,25,10.30
2015,04,26,10,26,10.30
2015,04,26,10,27,10.30
2015,04,26,10,28,10.40
2015,04,26,10,29,10.40
2015,04,26,10,30,10.40
2015,04,26,10,31,10.40
2015,04,26,10,32,10.40
2015,04,26,10,33,10.40
2015,04,26,10,34,10.40
2015,04,26,10,35,10.40
2015,04,26,10,36,10.50
2015,04,26,10,37,10.50
2015,04,26,10,38,10.60
2015,04,26,10,39,10.70
2015,04,26,10,40,10.70
2015,04,26,10,41,10.80
2015,04,26,10,42,10.80
2015,04,26,10,43,10.90
2015,04,26,10,44,10.90
2015,04,26,10,45,11.00
2015,04,26,10,46,11.00
2015,04,26,10,47,10.90
2015,04,26,10,48,10.90
2015,04,26,10,49,10.90
2015,04,26,10,50,10.90
2015,04,26,10,51,10.90
2015,04,26,10,52,10.90
2015,04,26,10,53,11.00
2015,04,26,10,54,11.10
2015,04,26,10,55,11.10
2015,04,26,10,56,11.10
2015,04,26,10,57,11.00
2015,04,26,10,58,11.00
2015,04,26,10,59,11.00
2015,04,26,11,00,10.90
2015,04,26,11,01,10.90
2015,04,26,11,02,10.80
2015,04,26,11,03,10.80
2015,04,26,11,04,10.90
2015,04,26,11,05,10.90
2015,04,26,11,06,10.80
2015,04,26,11,07,10.80
2015,04,26,11,08,10.70
2015,04,26,11,09,10.70
2015,04,26,11,10,10.80
2015,04,26,11,11,10.70
2015,04,26,11,12,10.80
2015,04,26,11,13,10.80
2015,04,26,11,14,10.70
2015,04,26,11,15,10.70
2015,04,26,11,16,10.60
2015,04,26,11,17,10.50
2015,04,26,11,18,10.50
2015,04,26,11,19,10.40
2015,04,26,11,20,10.50
2015,04,26,11,21,10.40
2015,04,26,11,22,10.40
2015,04,26,11,23,10.40
2015,04,26,11,24,10.40
2015,04,26,11,25,10.40
2015,04,26,11,26,10.40
2015,04,26,11,27,10.40
2015,04,26,11,28,10.40
2015,04,26,11,29,10.30
2015,04,26,11,30,10.30
2015,04,26,11,31,10.30
2015,04,26,11,32,10.30
2015,04,26,11,33,10.30
2015,04,26,11,34,10.30
2015,04,26,11,35,10.30
2015,04,26,11,36,10.30
2015,04,26,11,37,10.30
2015,04,26,11,38,10.30
2015,04,26,11,39,10.30
2015,04,26,11,40,10.30
2015,04,26,11,41,10.30
2015,04,26,11,42,10.30
2015,04,26,11,43,10.40
2015,04,26,11,44,10.40
2015,04,26,11,45,10.40
2015,04,26,11,46,10.40
2015,04,26,11,47,10.40
2015,04,26,11,48,10.30
2015,04,26,11,49,10.30
2015,04,26,11,50,10.30
2015,04,26,11,51,10.30
2015,04,26,11,52,10.30
2015,04,26,11,53,10.40
2015,04,26,11,54,10.40
2015,04,26,11,55,10.40
2015,04,26,11,56,10.40
2015,04,26,11,57,10.40
2015,04,26,11,58,10.50
2015,04,26,11,59,10.50
2015,04,26,12,00,10.50
2015,04,26,12,01,10.50
2015,04,26,12,02,10.50
2015,04,26,12,03,10.50
2015,04,26,12,04,10.50
2015,04,26,12,05,10.50
2015,04,26,12,06,10.60
2015,04,26,12,07,10.60
2015,04,26,12,08,10.60
2015,04,26,12,09,10.60
2015,04,26,12,10,10.60
2015,04,26,12,11,10.60
2015,04,26,12,12,10.60
2015,04,26,12,13,10.60
2015,04,26,12,14,10.60
2015,04,26,12,15,10.60
2015,04,26,12,16,10.60
2015,04,26,12,17,10.60
2015,04,26,12,18,10.60
2015,04,26,12,19,10.60
2015,04,26,12,20,10.70
2015,04,26,12,21,10.70
2015,04,26,12,22,10.70
2015,04,26,12,23,10.80
2015,04,26,12,24,10.80
2015,04,26,12,25,10.80
2015,04,26,12,26,10.80
2015,04,26,12,27,10.90
2015,04,26,12,28,10.90
2015,04,26,12,29,10.90
2015,04,26,12,30,10.90
2015,04,26,12,31,10.90
2015,04,26,12,32,10.90
2015,04,26,12,33,10.90
2015,04,26,12,34,10.90
2015,04,26,12,35,10.90
2015,04,26,12,36,10.80
2015,04,26,12,37,10.80
2015,04,26,12,38,10.70
2015,04,26,12,39,10.70
2015,04,26,12,40,10.70
2015,04,26,12,41,10.80
2015,04,26,12,42,10.80
2015,04,26,12,43,10.80
2015,04,26,12,44,10.80
2015,04,26,12,45,10.80
2015,04,26,12,46,10.80
2015,04,26,12,47,10.80
2015,04,26,12,48,10.80
2015,04,26,12,49,10.80
2015,04,26,12,50,10.90
2015,04,26,12,51,10.90
2015,04,26,12,52,10.90
2015,04,26,12,53,10.90
2015,04,26,12,54,10.90
2015,04,26,12,55,11.00
2015,04,26,12,56,11.00
2015,04,26,12,57,11.10
2015,04,26,12,58,11.10
2015,04,26,12,59,11.10
2015,04,26,13,00,11.10
2015,04,26,13,01,11.20
2015,04,26,13,02,11.20
2015,04,26,13,03,11.20
2015,04,26,13,04,11.20
2015,04,26,13,05,11.20
2015,04,26,13,06,11.20
2015,04,26,13,07,11.30
2015,04,26,13,08,11.30
2015,04,26,13,09,11.30
2015,04,26,13,10,11.30
2015,04,26,13,11,11.40
2015,04,26,13,12,11.40
2015,04,26,13,13,11.50
2015,04,26,13,14,11.60
2015,04,26,13,15,11.70
2015,04,26,13,16,11.90
2015,04,26,13,17,12.00
2015,04,26,13,18,12.00
2015,04,26,13,19,12.10
2015,04,26,13,20,12.00
2015,04,26,13,21,11.90
2015,04,26,13,22,11.90
2015,04,26,13,23,11.90
2015,04,26,13,24,11.90
2015,04,26,13,25,11.80
2015,04,26,13,26,11.80
2015,04,26,13,27,11.80
2015,04,26,13,28,11.80
2015,04,26,13,29,11.80
2015,04,26,13,30,11.90
2015,04,26,13,31,12.00
2015,04,26,13,32,12.00
2015,04,26,13,33,12.10
2015,04,26,13,34,12.10
2015,04,26,13,35,12.20
2015,04,26,13,36,12.20
2015,04,26,13,37,12.30
2015,04,26,13,38,12.30
2015,04,26,13,39,12.30
2015,04,26,13,40,12.30
2015,04,26,13,41,12.30
2015,04,26,13,42,12.30
2015,04,26,13,43,12.20
2015,04,26,13,44,12.10
2015,04,26,13,45,12.10
2015,04,26,13,46,12.10
2015,04,26,13,47,12.00
2015,04,26,13,48,12.00
2015,04,26,13,49,12.00
2015,04,26,13,50,11.90
2015,04,26,13,51,11.90
2015,04,26,13,52,11.90
2015,04,26,13,53,12.00
2015,04,26,13,54,12.00
2015,04,26,13,55,12.10
2015,04,26,13,56,12.20
2015,04,26,13,57,12.20
2015,04,26,13,58,12.30
2015,04,26,13,59,12.40
2015,04,26,14,00,12.50
2015,04,26,14,01,12.60
2015,04,26,14,02,12.60
2015,04,26,14,03,12.70
2015,04,26,14,04,12.70
2015,04,26,14,05,12.80
2015,04,26,14,06,12.80
2015,04,26,14,07,12.90
2015,04,26,14,08,12.90
2015,04,26,14,09,12.90
2015,04,26,14,10,12.90
2015,04,26,14,11,12.90
2015,04,26,14,12,12.90
2015,04,26,14,13,12.90
2015,04,26,14,14,12.90
2015,04,26,14,15,12.80
2015,04,26,14,16,12.80
2015,04,26,14,17,12.70
2015,04,26,14,18,12.60
2015,04,26,14,19,12.60
2015,04,26,14,20,12.60
2015,04,26,14,21,12.60
2015,04,26,14,22,12.60
2015,04,26,14,23,12.60
2015,04,26,14,24,12.60
2015,04,26,14,25,12.60
2015,04,26,14,26,12.70
2015,04,26,14,27,12.70
2015,04,26,14,28,12.80
2015,04,26,14,29,12.80
2015,04,26,14,30,12.80
2015,04,26,14,31,12.90
2015,04,26,14,32,12.90
2015,04,26,14,33,12.90
2015,04,26,14,34,12.90
2015,04,26,14,35,12.90
2015,04,26,14,36,13.00
2015,04,26,14,37,13.00
2015,04,26,14,38,13.10
2015,04,26,14,39,13.10
2015,04,26,14,40,13.10
2015,04,26,14,41,13.20
2015,04,26,14,42,13.20
2015,04,26,14,43,13.20
2015,04,26,14,44,13.20
2015,04,26,14,45,13.30
2015,04,26,14,46,13.30
2015,04,26,14,47,13.30
2015,04,26,14,48,13.30
2015,04,26,14,49,13.30
2015,04,26,14,50,13.30
2015,04,26,14,51,13.30
2015,04,26,14,52,13.40
2015,04,26,14,53,13.40
2015,04,26,14,54,13.30
2015,04,26,14,55,13.30
2015,04,26,14,56,13.30
2015,04,26,14,57,13.30
2015,04,26,14,58,13.40
2015,04,26,14,59,13.40
2015,04,26,15,00,13.40
2015,04,26,15,01,13.40
2015,04,26,15,02,13.40
2015,04,26,15,03,13.30
2015,04,26,15,04,13.20
2015,04,26,15,05,13.20
2015,04,26,15,06,13.10
2015,04,26,15,07,13.10
2015,04,26,15,08,13.10
2015,04,26,15,09,13.10
2015,04,26,15,10,13.10
2015,04,26,15,11,13.10
2015,04,26,15,12,13.10
2015,04,26,15,13,13.20
2015,04,26,15,14,13.20
2015,04,26,15,15,13.20
2015,04,26,15,16,13.20
2015,04,26,15,17,13.30
2015,04,26,15,18,13.30
2015,04,26,15,19,13.40
2015,04,26,15,20,13.40
2015,04,26,15,21,13.40
2015,04,26,15,22,13.40
2015,04,26,15,23,13.30
2015,04,26,15,24,13.30
2015,04,26,15,25,13.20
2015,04,26,15,26,13.20
2015,04,26,15,27,13.20
2015,04,26,15,28,13.20
2015,04,26,15,29,13.20
2015,04,26,15,30,13.20
2015,04,26,15,31,13.20
2015,04,26,15,32,13.20
2015,04,26,15,33,13.20
2015,04,26,15,34,13.20
2015,04,26,15,35,13.10
2015,04,26,15,36,13.10
2015,04,26,15,37,13.10
2015,04,26,15,38,13.10
2015,04,26,15,39,13.10
2015,04,26,15,40,13.10
2015,04,26,15,41,13.10
2015,04,26,15,42,13.10
2015,04,26,15,43,13.10
2015,04,26,15,44,13.10
2015,04,26,15,45,13.20
2015,04,26,15,46,13.20
2015,04,26,15,47,13.20
2015,04,26,15,48,13.20
2015,04,26,15,49,13.30
2015,04,26,15,50,13.30
2015,04,26,15,51,13.30
2015,04,26,15,52,13.30
2015,04,26,15,53,13.30
2015,04,26,15,54,13.30
2015,04,26,15,55,13.30
2015,04,26,15,56,13.30
2015,04,26,15,57,13.30
2015,04,26,15,58,13.30
2015,04,26,15,59,13.30
2015,04,26,16,00,13.30
2015,04,26,16,01,13.40
2015,04,26,16,02,13.40
2015,04,26,16,03,13.50
2015,04,26,16,04,13.50
2015,04,26,16,05,13.60
2015,04,26,16,06,13.60
2015,04,26,16,07,13.70
2015,04,26,16,08,13.70
2015,04,26,16,09,13.70
2015,04,26,16,10,13.70
2015,04,26,16,11,13.70
2015,04,26,16,12,13.60
2015,04,26,16,13,13.60
2015,04,26,16,14,13.60
2015,04,26,16,15,13.60
2015,04,26,16,16,13.50
2015,04,26,16,17,13.50
2015,04,26,16,18,13.50
2015,04,26,16,19,13.50
2015,04,26,16,20,13.50
2015,04,26,16,21,13.50
2015,04,26,16,22,13.40
2015,04,26,16,23,13.40
2015,04,26,16,24,13.50
2015,04,26,16,25,13.50
2015,04,26,16,26,13.50
2015,04,26,16,27,13.50
2015,04,26,16,28,13.50
2015,04,26,16,29,13.60
2015,04,26,16,30,13.60
2015,04,26,16,31,13.60
2015,04,26,16,32,13.60
2015,04,26,16,33,13.60
2015,04,26,16,34,13.60
2015,04,26,16,35,13.60
2015,04,26,16,36,13.60
2015,04,26,16,37,13.60
2015,04,26,16,38,13.60
2015,04,26,16,39,13.70
2015,04,26,16,40,13.70
2015,04,26,16,41,13.70
2015,04,26,16,42,13.70
2015,04,26,16,43,13.70
2015,04,26,16,44,13.60
2015,04,26,16,45,13.60
2015,04,26,16,46,13.60
2015,04,26,16,47,13.60
2015,04,26,16,48,13.60
2015,04,26,16,49,13.60
2015,04,26,16,50,13.60
2015,04,26,16,51,13.60
2015,04,26,16,52,13.60
2015,04,26,16,53,13.60
2015,04,26,16,54,13.60
2015,04,26,16,55,13.60
2015,04,26,16,56,13.60
2015,04,26,16,57,13.60
2015,04,26,16,58,13.60
2015,04,26,16,59,13.60
2015,04,26,17,00,13.60
2015,04,26,17,01,13.60
2015,04,26,17,02,13.60
2015,04,26,17,03,13.60
2015,04,26,17,04,13.60
2015,04,26,17,05,13.60
2015,04,26,17,06,13.60
2015,04,26,17,07,13.60
2015,04,26,17,08,13.60
2015,04,26,17,09,13.70
2015,04,26,17,10,13.70
2015,04,26,17,11,13.70
2015,04,26,17,12,13.70
2015,04,26,17,13,13.70
2015,04,26,17,14,13.70
2015,04,26,17,15,13.70
2015,04,26,17,16,13.70
2015,04,26,17,17,13.70
2015,04,26,17,18,13.70
2015,04,26,17,19,13.70
2015,04,26,17,20,13.70
2015,04,26,17,21,13.70
2015,04,26,17,22,13.70
2015,04,26,17,23,13.70
2015,04,26,17,24,13.70
2015,04,26,17,25,13.80
2015,04,26,17,26,13.80
2015,04,26,17,27,13.80
2015,04,26,17,28,13.80
2015,04,26,17,29,13.80
2015,04,26,17,30,13.80
2015,04,26,17,31,13.80
2015,04,26,17,32,13.80
2015,04,26,17,33,13.80
2015,04,26,17,34,13.90
2015,04,26,17,35,13.90
2015,04,26,17,36,13.90
2015,04,26,17,37,13.90
2015,04,26,17,38,13.90
2015,04,26,17,39,13.90
2015,04,26,17,40,13.90
2015,04,26,17,41,13.90
2015,04,26,17,42,13.90
2015,04,26,17,43,13.90
2015,04,26,17,44,13.90
2015,04,26,17,45,13.80
2015,04,26,17,46,13.90